Hauptseite
METAR-TAF:

METAR-TAF

Flughäfen :

Bric della Croce

Turin, Italien

Breite: 45-02N, Länge: 007-44E, Höhe: 709 m

Beobachtung

Neuester Wetterbericht von vor 43 Minuten, um 17:55 UTC
Windstille
Temperatur 10°C
Luftfeuchtigkeit 100%
Luftdruck 1027 hPa
Sichtweite: 7000 m
Durchbrochene Bewölkung in der Höhe von 3600 ft

METAR: LIMK 121755Z 00000KT 7000 BKN036 10/10 Q1027 RMK BKN VAL FOSCHIA VIS MIN 7000

Zeit: 19:38 (18:38 UTC)


TAF: fehlend

Wetterbeobachtungen und Prognosen von mehr als 4000 Flughäfen (METAR und TAF Bericht).

Die verfügbaren Stationen werden durch gelbe und rote Markierungen auf der Karte dargestellt.

Führen Sie die Maus auf sie, um den Namen der Station zu sehen.

Darauf klicken, um die Beobachtung von Wetterbeobachtungen und Prognosen zu sehen.

Um die Karte zu ändern : klicken Sie auf den grünen Tasten mit einem schwarzen Kreuz Zum Vergrößern, auf den grünen Button mit einem Gedankenstrich zu verkleinern, oder auf die grünen Pfeile für benachbarte Karten.


METAR-TAF: